User: anonymous   Login
Location: Ammerl�gen
(47.2167°N, 9.6000°E)
Time: 09:10:24
(UTC+00:00)
Language:

Cosmos 2251 - Orbit

View from above orbital plane
View from above orbital plane
View from above satellite
View from above satellite

Ground track
Ground track

The orbit data is extracted from the following two-line orbital elements,

1 22675U 93036A   21300.13074234  .00000015  00000-0  15303-4 0  9995
2 22675  74.0401 188.8036 0026150 279.7137  80.1061 14.32583662481801
Epoch (UTC): 27 October 2021 03:08:16
Eccentricity: 0.0026150
inclination: 74.0401°
perigee height: 764 km
apogee height: 802 km
right ascension of ascending node: 188.8036°
argument of perigee: 279.7137°
revolutions per day: 14.32583662
mean anomaly at epoch: 80.1061°
orbit number at epoch: 48180

The dashed part of the orbit path shows where the satellite is in the earth's shadow,  

DLR